DD5ASA Weather Reports


time (UTC)temp
F
wind
direction
speed
knots
gust
knots
rain 1hr
in
rain 24hr
in
rain mn
in
humidity
%
barometer
mb
20260507181023 49 66 3.5 6.1 0.00 0.41 0.41 78 1016.1
20260507180059 49 36 2.6 4.3 0.00 0.41 0.41 78 1016.1
20260507175026 49 53 2.6 5.2 0.00 0.41 0.41 77 1016.1
20260507174024 50 34 0.9 1.7 0.00 0.41 0.41 78 1016.1
20260507173044 50 40 1.7 3.5 0.00 0.41 0.41 78 1016.1
20260507171537 50 0 0.9 2.6 0.00 0.41 0.41 78 1016.1
20260507170533 50 307 0.9 3.5 0.00 0.41 0.41 78 1015.1
20260507165039 50 8 0.9 1.7 0.00 0.41 0.41 80 1015.1
20260507164041 50 8 0.9 2.6 0.00 0.41 0.41 79 1015.1
20260507163035 50 310 1.7 3.5 0.00 0.41 0.41 79 1015.1
20260507162039 50 14 1.7 3.5 0.00 0.41 0.41 77 1015.1
20260507161107 50 321 0.9 4.3 0.00 0.41 0.41 79 1015.1
20260507155515 51 326 2.6 3.5 0.00 0.41 0.41 78 1015.1
20260507154544 51 304 0.9 1.7 0.04 0.41 0.41 78 1015.1
20260507153030 51 343 1.7 3.5 0.00 0.37 0.36 77 1015.1
20260507152022 51 227 0.9 1.7 0.00 0.37 0.36 79 1015.1
20260507151050 52 1 1.7 1.7 0.00 0.37 0.36 76 1015.1
20260507150043 52 11 0.0 0.9 0.00 0.37 0.36 76 1015.1
20260507145026 52 5 1.7 2.6 0.00 0.37 0.36 76 1015.1
20260507144050 52 342 0.9 1.7 0.04 0.37 0.36 78 1014.5
20260507143026 53 16 1.7 2.6 0.04 0.37 0.36 78 1014.0
20260507142025 53 46 1.7 2.6 0.04 0.37 0.36 78 1014.0
20260507141022 53 11 1.7 2.6 0.04 0.37 0.36 77 1014.0
20260507140024 52 359 2.6 2.6 0.04 0.37 0.36 76 1014.0
20260507135042 53 31 1.7 4.3 0.00 0.33 0.32 76 1014.0
20260507134026 53 46 2.6 3.5 0.00 0.33 0.32 76 1014.0
20260507133036 54 42 0.9 3.5 0.00 0.33 0.32 76 1014.0
20260507132053 54 42 1.7 3.5 0.00 0.33 0.32 76 1014.0
20260507131037 54 328 0.9 1.7 0.00 0.33 0.32 1014.0
20260507130020 53 37 0.9 1.7 0.00 0.33 0.32 75 1014.0
20260507125022 53 70 0.0 1.7 0.00 0.33 0.32 75 1014.0
20260507124028 53 61 0.0 0.9 0.04 0.33 0.32 76 1014.0
20260507123018 53 112 0.0 0.0 0.00 0.28 0.27 77 1014.0
20260507122031 53 11 0.9 1.7 0.00 0.28 0.27 76 1014.0
20260507121036 53 340 0.9 1.7 0.00 0.28 0.27 77 1013.3
20260507120016 53 4 1.7 1.7 0.00 0.28 0.27 75 1013.0
20260507115044 54 13 1.7 1.7 0.00 0.28 0.27 76 1013.0
20260507114044 54 46 0.9 2.6 0.00 0.28 0.27 76 1013.0
20260507113023 54 51 1.7 2.6 0.00 0.28 0.27 76 1013.0
20260507112100 54 19 1.7 3.5 0.00 0.28 0.27 76 1013.0
20260507111048 54 344 0.9 2.6 0.00 0.28 0.27 77 1013.0
20260507110119 54 24 1.7 3.5 0.00 0.28 0.27 76 1013.0
20260507105022 54 41 0.9 1.7 0.00 0.28 0.27 77 1013.0
20260507104046 54 6 0.9 1.7 0.04 0.28 0.27 77 1013.0
20260507103044 53 48 1.7 1.7 0.00 0.25 0.25 77 1013.0
20260507102028 53 26 1.7 1.7 0.00 0.25 0.25 77 1013.0
20260507101044 53 20 0.9 1.7 0.00 0.25 0.25 76 1013.0
20260507100015 53 55 1.7 1.7 0.00 0.25 0.25 76 1013.0
20260507095036 53 24 1.7 1.7 0.00 0.25 0.25 76 1012.0
20260507094102 53 54 2.6 3.5 0.00 0.25 0.25 76 1012.0
20260507093028 53 21 1.7 2.6 0.00 0.25 0.25 75 1012.0
20260507092048 54 41 1.7 2.6 0.00 0.25 0.25 75 1012.0
20260507091104 54 15 1.7 1.7 0.00 0.25 0.25 76 1012.0
20260507090320 55 348 0.0 1.7 0.00 0.25 0.25 76 1012.0
20260507085024 55 82 0.9 2.6 0.00 0.25 0.25 78 1012.0
20260507084041 54 28 0.0 1.7 0.00 0.25 0.25 78 1011.5
20260507083100 53 29 0.9 2.6 0.00 0.25 0.25 79 1010.9
20260507081554 53 37 0.9 1.7 0.00 0.25 0.25 80 1010.9
20260507080550 52 11 0.9 2.6 0.00 0.25 0.25 80 1010.9
20260507075539 52 338 0.0 0.9 0.00 0.25 0.25 80 1010.9
20260507074522 52 67 0.0 0.0 0.00 0.25 0.25 81 1010.9
20260507073516 51 90 0.0 0.9 0.00 0.25 0.25 81 1010.9
20260507072602 51 43 0.9 1.7 0.00 0.25 0.25 83 1010.9
20260507071032 51 21 0.9 3.5 0.00 0.25 0.25 79 1010.9
20260507070048 51 41 1.7 2.6 0.00 0.25 0.25 79 1010.9
20260507065042 51 33 0.9 1.7 0.00 0.25 0.25 79 1010.9
20260507064025 51 57 0.9 0.9 0.00 0.25 0.25 79 1010.9
20260507063100 51 27 0.9 2.6 0.00 0.25 0.25 79 1010.9
20260507062110 52 35 0.0 1.7 0.00 0.25 0.25 79 1009.9
20260507061027 52 63 0.0 0.9 0.00 0.25 0.25 79 1009.9
20260507060017 52 33 1.7 2.6 0.00 0.25 0.25 80 1009.9
20260507055016 52 28 1.7 2.6 0.00 0.25 0.25 80 1009.9
20260507054025 52 8 0.9 1.7 0.00 0.25 0.25 80 1009.9
20260507053027 52 18 1.7 1.7 0.00 0.25 0.25 80 1009.9
20260507052029 52 7 0.9 0.9 0.00 0.25 0.25 82 1009.9
20260507051022 52 148 0.9 1.7 0.00 0.25 0.25 85 1009.9
20260507050033 51 211 0.9 1.7 0.00 0.25 0.25 85 1009.9
20260507045031 51 195 0.0 0.9 0.00 0.25 0.25 84 1009.9
20260507044022 51 163 0.9 1.7 0.04 0.25 0.25 85 1009.9
20260507043027 51 162 0.0 1.7 0.04 0.25 0.25 81 1009.9
20260507042055 51 0.0 0.0 0.04 0.25 0.25 81 1009.9
20260507041022 51 28 0.0 0.9 0.04 0.25 0.25 81 1009.9
20260507040100 51 0.0 0.0 0.00 0.20 0.19 83 1009.9
20260507035047 51 225 0.0 0.9 0.00 0.20 0.19 83 1009.9
20260507034017 51 0.0 0.0 0.00 0.20 0.19 84 1009.3
20260507033103 51 135 0.0 0.9 0.00 0.20 0.19 81 1008.9
20260507032036 51 354 0.9 1.7 0.00 0.20 0.19 81 1008.9
20260507031038 51 11 0.9 1.7 0.00 0.20 0.19 83 1008.9
20260507025050 51 272 0.9 1.7 0.00 0.20 0.19 85 1008.9
20260507024034 51 183 0.9 1.7 0.04 0.20 0.19 83 1008.9
20260507023031 51 29 0.9 1.7 0.04 0.20 0.19 83 1008.9
20260507022015 51 276 0.0 0.9 0.04 0.20 0.19 84 1008.9
20260507021116 51 280 0.0 0.9 0.00 0.17 0.16 80 1008.9
20260507020043 51 277 0.9 1.7 0.00 0.17 0.16 83 1008.9
20260507015037 51 238 0.9 1.7 0.00 0.17 0.16 84 1008.9
20260507014017 51 355 2.6 5.2 0.00 0.17 0.16 81 1008.2
20260507013056 51 20 3.5 5.2 0.00 0.17 0.16 78 1007.8
20260507012017 51 38 3.5 4.3 0.00 0.17 0.16 77 1007.8
20260507011057 52 45 3.5 6.1 0.00 0.17 0.16 76 1008.9
20260507010023 52 9 3.5 4.3 0.00 0.17 0.16 75 1008.9
20260507005101 52 34 2.6 3.5 0.00 0.17 0.16 75 1008.9
20260507004026 53 48 2.6 4.3 0.13 0.17 0.16 75 1008.9
20260507003027 53 37 3.5 5.2 0.08 0.12 0.11 77 1008.9
20260507002050 54 278 3.5 5.2 0.04 0.08 0.07 82 1008.9
20260507001114 55 243 1.7 1.7 0.04 0.08 0.07 80 1008.2
20260507000015 55 355 0.0 1.7 0.00 0.04 0.03 77 1007.8
20260506235037 55 0.0 0.0 0.00 0.04 0.03 79 1007.8
20260506234044 56 0.0 0.0 0.00 0.00 0.00 75 1007.8
20260506232515 55 175 0.9 1.7 0.00 0.00 0.00 79 1007.8
20260506231517 56 0.0 0.0 0.00 0.00 0.00 75 1007.8
20260506230539 55 126 0.9 3.5 0.00 0.00 0.00 79 1007.8
20260506225523 56 25 2.6 5.2 0.00 0.00 0.00 73 1007.8
20260506224515 56 66 0.9 2.6 0.00 0.17 0.00 75 1007.8
20260506223525 56 20 0.9 1.7 0.00 0.17 0.00 75 1007.8
20260506222545 56 62 0.9 1.7 0.00 0.17 0.00 76 1007.8
20260506221534 56 51 1.7 2.6 0.00 0.17 0.00 73 1007.8
20260506220534 57 14 0.9 2.6 0.00 0.17 0.00 75 1007.8
20260506215547 57 10 0.9 2.6 0.00 0.17 0.29 76 1007.8
20260506214537 57 268 0.9 3.5 0.00 0.34 0.29 77 1007.8
20260506213523 57 23 2.6 4.3 0.00 0.34 0.29 74 1007.8
20260506212545 57 43 2.6 3.5 0.00 0.34 0.29 73 1007.8
20260506211517 57 37 1.7 1.7 0.00 0.34 0.29 74 1007.8
20260506210557 57 64 2.6 4.3 0.00 0.34 0.29 73 1006.8
20260506205602 57 43 3.5 5.2 0.00 0.34 0.29 74 1006.8
20260506204528 57 13 3.5 6.1 0.00 0.34 0.29 73 1006.8
20260506203523 58 27 3.5 5.2 0.00 0.34 0.29 72 1006.8
20260506202540 58 55 5.2 8.7 0.00 0.34 0.29 71 1006.8
20260506201607 58 46 5.2 7.8 0.00 0.34 0.29 70 1006.8
20260506200523 58 34 5.2 8.7 0.00 0.34 0.29 70 1006.8
20260506195515 59 13 1.7 1.7 0.00 0.34 0.29 70 1006.8
20260506194523 59 24 2.6 5.2 0.00 0.34 0.29 71 1006.8
20260506193520 59 37 4.3 5.2 0.00 0.34 0.29 69 1006.8
20260506192524 59 48 4.3 8.7 0.00 0.34 0.29 68 1006.8
20260506191531 59 41 4.3 5.2 0.00 0.34 0.29 67 1006.8
20260506190547 59 48 3.5 5.2 0.00 0.34 0.29 66 1006.8
20260506185535 60 23 4.3 5.2 0.00 0.34 0.29 65 1006.8
20260506184529 60 32 4.3 6.1 0.00 0.34 0.29 63 1006.8
20260506183546 60 38 4.3 6.1 0.00 0.34 0.29 61 1006.8
20260506182523 61 36 2.6 3.5 0.00 0.34 0.29 59 1006.8
20260506181558 61 57 3.5 4.3 0.00 0.34 0.29 57 1006.8